Weather History for Poplar Bluff, MO

Change the Weather History Date:

Thursday, January 31, 2013

  Actual Average Record
Temperature  
Mean Temperature 37 °F -  
Max Temperature 48 °F 45 °F 68 °F (1924)
Min Temperature 23 °F 24 °F 2 °F (1936)
Degree Days  
Heating Degree Days 28    
Moisture  
Dew Point 21 °F    
Average Humidity 61    
Maximum Humidity 81    
Minimum Humidity 41    
Precipitation  
Precipitation 0.00 in - - ()
Sea Level Pressure  
Sea Level Pressure 30.14 in    
Wind  
Wind Speed 12 mph (West)    
Max Wind Speed 23 mph    
Max Gust Speed 36 mph    
Visibility 9 miles    
Events Snow    
Averages and records for this station are not official NWS values.
T = Trace of Precipitation, MM = Missing Value Source: NWS Daily Summary

Daily Weather History Graph

Daily Weather History Graph

Search for Another Location

Airport:

Trip Planner

Search our weather history database for the weather conditions in past years. The results will help you decide how hot, cold, wet, or windy it might be!

Date:

Astronomy

Jan. 31, 2013 Rise Set
Actual Time 7:03 AM CST 5:26 PM CST
Civil Twilight 6:36 AM CST 5:53 PM CST
Nautical Twilight 6:05 AM CST 6:24 PM CST
Astronomical Twilight 5:35 AM CST 6:54 PM CST
Moon 10:18 PM CST (1/31) 9:12 AM CST (1/31)
Length of Visible Light 11h 16m
Length of Day
10h 22m
Waning Gibbous, 79% of the Moon is Illuminated
Jan 31
Waning Gibbous
Feb 3
Last Quarter
Feb 10
New
Feb 17
First Quarter
Feb 25
Full

Hourly Weather History & Observations

Time (CST) Temp. Windchill Dew Point Humidity Pressure Visibility Wind Dir Wind Speed Gust Speed Precip Events Conditions
12:53 AM 33.1 °F 23.4 °F 19.0 °F 56% 30.01 in 10.0 mi WNW 13.8 mph - N/A   Mostly Cloudy
1:53 AM 32.0 °F 23.6 °F 19.0 °F 59% 30.01 in 10.0 mi WNW 10.4 mph - N/A   Mostly Cloudy
2:53 AM 32.0 °F 24.8 °F 19.0 °F 59% 30.01 in 10.0 mi West 8.1 mph - N/A   Mostly Cloudy
3:53 AM 30.9 °F 24.3 °F 19.0 °F 61% 30.02 in 10.0 mi WNW 6.9 mph - N/A   Scattered Clouds
4:53 AM 30.0 °F 26.5 °F 19.9 °F 66% 30.04 in 10.0 mi WSW 3.5 mph - N/A   Clear
5:53 AM 28.9 °F 22.8 °F 19.0 °F 67% 30.06 in 10.0 mi WSW 5.8 mph - N/A   Clear
6:53 AM 28.9 °F 21.9 °F 19.9 °F 69% 30.09 in 10.0 mi WSW 6.9 mph - N/A   Partly Cloudy
7:53 AM 30.0 °F 22.4 °F 21.0 °F 69% 30.10 in 10.0 mi SW 8.1 mph - N/A   Overcast
8:53 AM 32.0 °F 24.8 °F 21.9 °F 66% 30.12 in 10.0 mi SW 8.1 mph - N/A   Scattered Clouds
9:53 AM 35.1 °F 26.4 °F 23.0 °F 61% 30.14 in 10.0 mi SW 12.7 mph - N/A   Clear
10:53 AM 37.9 °F 32.1 °F 21.9 °F 53% 30.14 in 10.0 mi West 8.1 mph - N/A   Clear
11:53 AM 39.0 °F 32.3 °F 26.1 °F 60% 30.10 in 10.0 mi SSW 10.4 mph - N/A   Clear
12:53 PM 41.0 °F 34.7 °F 27.0 °F 57% 30.07 in 10.0 mi SSW 10.4 mph - N/A   Clear
2:53 PM - - - N/A% 30.04 in - North - - N/A   Unknown
3:53 PM 48.0 °F - 25.0 °F 41% 30.07 in 10.0 mi WNW 16.1 mph 25.3 mph N/A   Overcast
4:53 PM 39.9 °F 31.1 °F 32.0 °F 73% 30.11 in 10.0 mi NW 17.3 mph 25.3 mph N/A   Overcast
5:24 PM 35.6 °F 24.0 °F 30.2 °F 81% 30.12 in 2.5 mi NW 23.0 mph 32.2 mph 0.00 in Snow Light Snow
5:27 PM 35.6 °F 25.2 °F 30.2 °F 81% 30.12 in 3.0 mi NW 18.4 mph 32.2 mph 0.00 in Snow Light Snow
5:53 PM 36.0 °F 25.0 °F 28.9 °F 76% 30.17 in 7.0 mi WNW 20.7 mph 35.7 mph 0.00 in Snow Light Snow
6:53 PM 35.1 °F 25.2 °F 26.1 °F 70% 30.21 in 10.0 mi WNW 16.1 mph 28.8 mph 0.00 in   Overcast
7:53 PM 32.0 °F 20.8 °F 18.0 °F 56% 30.24 in 10.0 mi NW 17.3 mph 25.3 mph N/A   Partly Cloudy
8:53 PM 30.0 °F 19.5 °F 12.0 °F 47% 30.30 in 10.0 mi NNW 13.8 mph - N/A   Clear
9:53 PM 27.0 °F 14.7 °F 8.1 °F 45% 30.33 in 10.0 mi NW 16.1 mph 23.0 mph N/A   Clear
10:53 PM 26.1 °F 12.7 °F 8.1 °F 47% 30.38 in 10.0 mi NW 18.4 mph 27.6 mph N/A   Clear
11:53 PM 23.0 °F 8.7 °F 7.0 °F 50% 30.40 in 10.0 mi NNW 18.4 mph 25.3 mph N/A   Clear